DELTA 1 DEB, 9702

Orbit data source: Space-Track

DELTA 1 DEB, 9702 is space debris in LEO originally from a launch on Tue, 06 Nov 1973 UTC launched from the Air Force Western Test Range (AFWTR). Debris objects in space refer to the collection of defunct objects orbiting the Earth. Examples of debris include non-operational satellites, rocket bodies, and fragments generated from explosions, collisions, or faulty payload assembly.

Loading next visibility...
Identifier
9702, 1973-086GA
Orbit
LEO
Country
Flag of USUS
Related business
Manufacturer
Unknown
Mission
Spacecraft
Bus & Motor
Unknown
Mass
Unknown
Launch date (UTC)
1973-11-06 (52 years ago)
Launch vehicle
Unknown
Launch site
Air Force Western Test Range (AFWTR)
Object type
Payload
Rocket body
Debris
Shape & HBR
Unknown shape, 1.1 m
Radar Cross Section
Small (<0.1 m²)

Expand to show TLE details & history
Last TLE update: 1 month ago

TLE from 1 month ago
0 DELTA 1 DEB
1  9702U 73086GA  25260.40119700  .00000246  00000-0  37345-2 0  9995
2  9702 103.0806 216.5249 0740087 271.5868 251.1541 11.42600788159449
Epoch: 2025-09-17T09:37Z
TLE epoch observation values (Epoch: 2025-09-17T09:37:43.420Z)
Latitude
24.3586°
Longitude
-98.47251°
Altitude
2,189.419 km
Speed
6.725 km/s
True Right ascension
02h 50m 08s
True Declination
24° 15' 04"
Sunlit
Object was in daylight at epoch
Visualization orbit readout
Latitude
Unknown
Longitude
Unknown
Altitude
Unknown
Speed
Unknown
Apparent Right ascension
Unknown
Apparent Declination
Unknown
Sunlit
N/A
Visualization observer readout
Local Sidereal Time
04:33:07
Azimuth
Unknown
Elevation
Unknown
Doppler factor
Unknown
Orbital elements
Apogee altitude
2,562.378 km
Perigee altitude
1,330.217 km
Semi-major axis
8,324.434 km
Eccentricity
0.07401
Inclination
103.0806°
RAAN
216.5249°
Arg. of periapsis
271.5868°
True anomaly
243.3849°
Mean anomaly
251.1541°
Eccentric anomaly
247.24379°
Mean motion
2.85766 °/min
Orbital period
125.98 mins
BSTAR
0.0037345
Loading maneuver chart data...
Computing Atmospheric mass density...
Loading historical data...
Loading historical data...
Loading historical data...
Loading historical data...
Loading historical data...
Loading historical data...
Loading historical data...

Documentation

Showing up to 5 results
|